owner,sensor,date,latitude,longitude,vertical_datum,direction_of_sea_water_velocity,sea_water_speed,upward_sea_water_velocity,qcFlag 
TABS,ioos:station:wmo:42047:1,2008-12-01T00:00:00Z,27.8966,-93.5973,2.0,118.083156,15.69823557,-99999.0,'11111222,11111222,99999999' 
TABS,ioos:station:wmo:42047:1,2008-12-01T00:30:00Z,27.8966,-93.5973,2.0,128.2572291,20.89812671,-99999.0,'11111222,11111222,99999999' 
TABS,ioos:station:wmo:42047:1,2008-12-01T01:00:00Z,27.8966,-93.5973,2.0,129.6395196,22.10181893,-99999.0,'11111222,11111222,99999999' 
TABS,ioos:station:wmo:42047:1,2008-12-01T01:30:00Z,27.8966,-93.5973,2.0,131.7626898,18.40707744,-99999.0,'11111222,11111222,99999999' 
TABS,ioos:station:wmo:42047:1,2008-12-01T02:00:00Z,27.8966,-93.5973,2.0,125.6547761,21.59885645,-99999.0,'11111222,11111222,99999999' 
TABS,ioos:station:wmo:42047:1,2008-12-01T02:30:00Z,27.8966,-93.5973,2.0,124.2134318,17.30459477,-99999.0,'11111222,11111222,99999999' 
TABS,ioos:station:wmo:42047:1,2008-12-01T03:00:00Z,27.8966,-93.5973,2.0,140.4128511,15.44136004,-99999.0,'11111222,11111222,99999999' 
TABS,ioos:station:wmo:42047:1,2008-12-01T03:30:00Z,27.8966,-93.5973,2.0,124.8830236,21.97921291,-99999.0,'11111222,11111222,99999999' 
TABS,ioos:station:wmo:42047:1,2008-12-01T04:00:00Z,27.8966,-93.5973,2.0,131.7030976,24.59144567,-99999.0,'11111222,11111222,99999999' 
TABS,ioos:station:wmo:42047:1,2008-12-01T04:30:00Z,27.8966,-93.5973,2.0,135.5095955,21.46154002,-99999.0,'11111222,11111222,99999999' 
TABS,ioos:station:wmo:42047:1,2008-12-01T05:00:00Z,27.8966,-93.5973,2.0,112.2667734,17.60264185,-99999.0,'11111222,11111222,99999999' 
TABS,ioos:station:wmo:42047:1,2008-12-01T05:30:00Z,27.8966,-93.5973,2.0,120.6564718,21.74976322,-99999.0,'11111222,11111222,99999999' 
TABS,ioos:station:wmo:42047:1,2008-12-01T06:00:00Z,27.8966,-93.5973,2.0,122.026382,17.29174659,-99999.0,'11111222,11111222,99999999' 
TABS,ioos:station:wmo:42047:1,2008-12-01T06:30:00Z,27.8966,-93.5973,2.0,128.2328909,16.14256795,-99999.0,'11111222,11111222,99999999' 
TABS,ioos:station:wmo:42047:1,2008-12-01T07:00:00Z,27.8966,-93.5973,2.0,130.0374961,16.75760424,-99999.0,'11111222,11111222,99999999' 
TABS,ioos:station:wmo:42047:1,2008-12-01T07:30:00Z,27.8966,-93.5973,2.0,133.5193209,15.87277543,-99999.0,'11111222,11111222,99999999' 
TABS,ioos:station:wmo:42047:1,2008-12-01T08:00:00Z,27.8966,-93.5973,2.0,127.7169434,17.17987776,-99999.0,'11111222,11111222,99999999' 
TABS,ioos:station:wmo:42047:1,2008-12-01T08:30:00Z,27.8966,-93.5973,2.0,125.5965029,18.0904671,-99999.0,'11111222,11111222,99999999' 
TABS,ioos:station:wmo:42047:1,2008-12-01T09:00:00Z,27.8966,-93.5973,2.0,133.499819,15.93657742,-99999.0,'11111222,11111222,99999999' 
TABS,ioos:station:wmo:42047:1,2008-12-01T09:30:00Z,27.8966,-93.5973,2.0,136.1989309,18.24735049,-99999.0,'11111222,11111222,99999999' 
TABS,ioos:station:wmo:42047:1,2008-12-01T10:00:00Z,27.8966,-93.5973,2.0,145.7227758,17.59601375,-99999.0,'11111222,11111222,99999999' 
TABS,ioos:station:wmo:42047:1,2008-12-01T10:30:00Z,27.8966,-93.5973,2.0,137.2778962,23.1265259,-99999.0,'11111222,11111222,99999999' 
TABS,ioos:station:wmo:42047:1,2008-12-01T11:00:00Z,27.8966,-93.5973,2.0,133.7865282,25.04426681,-99999.0,'11111222,11111222,99999999' 
TABS,ioos:station:wmo:42047:1,2008-12-01T11:30:00Z,27.8966,-93.5973,2.0,143.3017143,21.35209592,-99999.0,'11111222,11111222,99999999' 
TABS,ioos:station:wmo:42047:1,2008-12-01T12:00:00Z,27.8966,-93.5973,2.0,138.8824268,20.46821927,-99999.0,'11111222,11111222,99999999' 
TABS,ioos:station:wmo:42047:1,2008-12-01T12:30:00Z,27.8966,-93.5973,2.0,113.3675698,21.80878034,-99999.0,'11111222,11111222,99999999' 
TABS,ioos:station:wmo:42047:1,2008-12-01T13:00:00Z,27.8966,-93.5973,2.0,122.0436311,19.01742622,-99999.0,'11111222,11111222,99999999' 
TABS,ioos:station:wmo:42047:1,2008-12-01T13:30:00Z,27.8966,-93.5973,2.0,136.1328864,19.66848494,-99999.0,'11111222,11111222,99999999' 
TABS,ioos:station:wmo:42047:1,2008-12-01T14:00:00Z,27.8966,-93.5973,2.0,131.1515145,17.27822329,-99999.0,'11111222,11111222,99999999' 
TABS,ioos:station:wmo:42047:1,2008-12-01T14:30:00Z,27.8966,-93.5973,2.0,133.3303831,13.34877148,-99999.0,'11111222,11111222,99999999' 
TABS,ioos:station:wmo:42047:1,2008-12-01T15:00:00Z,27.8966,-93.5973,2.0,124.9389257,21.25006588,-99999.0,'11111222,11111222,99999999' 
TABS,ioos:station:wmo:42047:1,2008-12-01T15:30:00Z,27.8966,-93.5973,2.0,136.0560242,17.26340928,-99999.0,'11111222,11111222,99999999' 
TABS,ioos:station:wmo:42047:1,2008-12-01T16:00:00Z,27.8966,-93.5973,2.0,141.5516775,14.37745457,-99999.0,'11111222,11111222,99999999' 
TABS,ioos:station:wmo:42047:1,2008-12-01T16:30:00Z,27.8966,-93.5973,2.0,125.4105899,16.25727222,-99999.0,'11111222,11111222,99999999' 
TABS,ioos:station:wmo:42047:1,2008-12-01T17:00:00Z,27.8966,-93.5973,2.0,134.1583243,12.51714025,-99999.0,'11111222,11111222,99999999' 
TABS,ioos:station:wmo:42047:1,2008-12-01T17:30:00Z,27.8966,-93.5973,2.0,133.3295352,11.64392545,-99999.0,'11111222,11111222,99999999' 
TABS,ioos:station:wmo:42047:1,2008-12-01T18:00:00Z,27.8966,-93.5973,2.0,103.2546816,13.86947728,-99999.0,'11111222,11111222,99999999' 
TABS,ioos:station:wmo:42047:1,2008-12-01T18:30:00Z,27.8966,-93.5973,2.0,87.83966597,14.59037011,-99999.0,'11111222,11111222,99999999' 
TABS,ioos:station:wmo:42047:1,2008-12-01T19:00:00Z,27.8966,-93.5973,2.0,98.90525388,11.49860861,-99999.0,'11111222,11111222,99999999' 
TABS,ioos:station:wmo:42047:1,2008-12-01T19:30:00Z,27.8966,-93.5973,2.0,122.2079973,10.18770337,-99999.0,'11111222,11111222,99999999' 
TABS,ioos:station:wmo:42047:1,2008-12-01T20:00:00Z,27.8966,-93.5973,2.0,76.25326714,12.96126923,-99999.0,'11111222,11111222,99999999' 
TABS,ioos:station:wmo:42047:1,2008-12-01T20:30:00Z,27.8966,-93.5973,2.0,94.76788318,11.18871753,-99999.0,'11111222,11111222,99999999' 
TABS,ioos:station:wmo:42047:1,2008-12-01T21:00:00Z,27.8966,-93.5973,2.0,108.1991225,5.379079847,-99999.0,'11133222,11111222,99999999' 
TABS,ioos:station:wmo:42047:1,2008-12-01T21:30:00Z,27.8966,-93.5973,2.0,112.3136319,14.53866913,-99999.0,'11111222,11111222,99999999' 
TABS,ioos:station:wmo:42047:1,2008-12-01T22:00:00Z,27.8966,-93.5973,2.0,104.7068161,14.29845446,-99999.0,'11111222,11111222,99999999' 
TABS,ioos:station:wmo:42047:1,2008-12-01T22:30:00Z,27.8966,-93.5973,2.0,97.88488236,14.87059178,-99999.0,'11111222,11111222,99999999' 
TABS,ioos:station:wmo:42047:1,2008-12-01T23:00:00Z,27.8966,-93.5973,2.0,94.81017993,14.31040181,-99999.0,'11111222,11111222,99999999' 
TABS,ioos:station:wmo:42047:1,2008-12-01T23:30:00Z,27.8966,-93.5973,2.0,105.5621977,9.653916304,-99999.0,'11133222,11111222,99999999' 
TABS,ioos:station:wmo:42047:1,2008-12-02T00:00:00Z,27.8966,-93.5973,2.0,91.1739268,12.20256121,-99999.0,'11111222,11111222,99999999' 
TABS,ioos:station:wmo:42047:1,2008-12-02T00:30:00Z,27.8966,-93.5973,2.0,133.1206008,14.01532376,-99999.0,'11111222,11111222,99999999' 
TABS,ioos:station:wmo:42047:1,2008-12-02T01:00:00Z,27.8966,-93.5973,2.0,96.92853783,15.91623071,-99999.0,'11111222,11111222,99999999' 
TABS,ioos:station:wmo:42047:1,2008-12-02T01:30:00Z,27.8966,-93.5973,2.0,113.2615464,15.52174281,-99999.0,'11111222,11111222,99999999' 
TABS,ioos:station:wmo:42047:1,2008-12-02T02:00:00Z,27.8966,-93.5973,2.0,114.2592162,18.22976961,-99999.0,'11111222,11111222,99999999' 
TABS,ioos:station:wmo:42047:1,2008-12-02T02:30:00Z,27.8966,-93.5973,2.0,114.1121395,12.43498693,-99999.0,'11111222,11111222,99999999' 
TABS,ioos:station:wmo:42047:1,2008-12-02T03:00:00Z,27.8966,-93.5973,2.0,119.5746489,12.94680269,-99999.0,'11111222,11111222,99999999' 
TABS,ioos:station:wmo:42047:1,2008-12-02T03:30:00Z,27.8966,-93.5973,2.0,135.9889644,10.65061501,-99999.0,'11111222,11111222,99999999' 
TABS,ioos:station:wmo:42047:1,2008-12-02T04:00:00Z,27.8966,-93.5973,2.0,130.8454696,15.51934599,-99999.0,'11111222,11111222,99999999' 
TABS,ioos:station:wmo:42047:1,2008-12-02T04:09:00Z,27.8966,-93.5973,2.0,125.623253422,11.6747633809,-99999.0,'1111122,1111122,1199999999' 
TABS,ioos:station:wmo:42047:1,2008-12-02T04:30:00Z,27.8966,-93.5973,2.0,125.6231701,11.67476338,-99999.0,'11111222,11111222,99999999' 
TABS,ioos:station:wmo:42047:1,2008-12-02T04:39:00Z,27.8966,-93.5973,2.0,146.168211754,7.84903178742,-99999.0,'1111122,1111122,1199999999' 
TABS,ioos:station:wmo:42047:1,2008-12-02T05:00:00Z,27.8966,-93.5973,2.0,146.1680804,7.849031787,-99999.0,'11133222,11111222,99999999' 
TABS,ioos:station:wmo:42047:1,2008-12-02T05:09:00Z,27.8966,-93.5973,2.0,107.548586943,11.2432424149,-99999.0,'1111122,1111122,1199999999' 
TABS,ioos:station:wmo:42047:1,2008-12-02T05:30:00Z,27.8966,-93.5973,2.0,107.5485459,11.24324241,-99999.0,'11111222,11111222,99999999' 
TABS,ioos:station:wmo:42047:1,2008-12-02T05:39:00Z,27.8966,-93.5973,2.0,135.051571345,7.85595952128,-99999.0,'1111122,1111122,1199999999' 
TABS,ioos:station:wmo:42047:1,2008-12-02T06:00:00Z,27.8966,-93.5973,2.0,135.051466,7.855959521,-99999.0,'11133222,11111222,99999999' 
TABS,ioos:station:wmo:42047:1,2008-12-02T06:09:00Z,27.8966,-93.5973,2.0,120.049411806,8.16780264208,-99999.0,'1111122,1111122,1199999999' 
TABS,ioos:station:wmo:42047:1,2008-12-02T06:30:00Z,27.8966,-93.5973,2.0,120.0493415,8.167802642,-99999.0,'11133222,11111222,99999999' 
TABS,ioos:station:wmo:42047:1,2008-12-02T06:39:00Z,27.8966,-93.5973,2.0,116.654505873,5.72881314061,-99999.0,'1111122,1111122,1199999999' 
TABS,ioos:station:wmo:42047:1,2008-12-02T07:00:00Z,27.8966,-93.5973,2.0,116.6544435,5.728813141,-99999.0,'11133222,11111222,99999999' 
TABS,ioos:station:wmo:42047:1,2008-12-02T07:09:00Z,27.8966,-93.5973,2.0,109.888571117,6.73149314788,-99999.0,'1111122,1111122,1199999999' 
TABS,ioos:station:wmo:42047:1,2008-12-02T07:30:00Z,27.8966,-93.5973,2.0,109.8885246,6.731493148,-99999.0,'11133222,11111222,99999999' 
TABS,ioos:station:wmo:42047:1,2008-12-02T07:39:00Z,27.8966,-93.5973,2.0,146.359389328,6.42620416731,-99999.0,'1111122,1111122,1199999999' 
TABS,ioos:station:wmo:42047:1,2008-12-02T08:00:00Z,27.8966,-93.5973,2.0,146.3592575,6.426204167,-99999.0,'11133222,11111222,99999999' 
TABS,ioos:station:wmo:42047:1,2008-12-02T08:09:00Z,27.8966,-93.5973,2.0,123.493737811,4.85642872901,-99999.0,'1111122,1111122,1199999999' 
TABS,ioos:station:wmo:42047:1,2008-12-02T08:30:00Z,27.8966,-93.5973,2.0,123.4936595,4.856428729,-99999.0,'11133222,11111222,99999999' 
TABS,ioos:station:wmo:42047:1,2008-12-02T08:39:00Z,27.8966,-93.5973,2.0,154.2830152,8.15806962461,-99999.0,'1111122,1111122,1199999999' 
TABS,ioos:station:wmo:42047:1,2008-12-02T09:00:00Z,27.8966,-93.5973,2.0,154.2828649,8.158069625,-99999.0,'11133222,11111222,99999999' 
TABS,ioos:station:wmo:42047:1,2008-12-02T09:30:00Z,27.8966,-93.5973,2.0,52.9842058137,10.9960356493,-99999.0,'1111122,1111122,1199999999' 
TABS,ioos:station:wmo:42047:1,2008-12-02T10:00:00Z,27.8966,-93.5973,2.0,151.2215775,4.632116147,-99999.0,'11133222,11111222,99999999' 
TABS,ioos:station:wmo:42047:1,2008-12-02T10:30:00Z,27.8966,-93.5973,2.0,158.7750586,4.612905809,-99999.0,'11133222,11111222,99999999' 
TABS,ioos:station:wmo:42047:1,2008-12-02T11:00:00Z,27.8966,-93.5973,2.0,146.5465583,3.355964839,-99999.0,'11133222,11111222,99999999' 
TABS,ioos:station:wmo:42047:1,2008-12-02T11:30:00Z,27.8966,-93.5973,2.0,106.7882565,3.081330881,-99999.0,'11133222,11111222,99999999' 
TABS,ioos:station:wmo:42047:1,2008-12-02T12:00:00Z,27.8966,-93.5973,2.0,94.82684749,2.258007972,-99999.0,'11133222,11111222,99999999' 
TABS,ioos:station:wmo:42047:1,2008-12-02T12:30:00Z,27.8966,-93.5973,2.0,188.6895195,2.316592325,-99999.0,'11133222,11111222,99999999' 
TABS,ioos:station:wmo:42047:1,2008-12-02T13:00:00Z,27.8966,-93.5973,2.0,128.5347275,3.57951114,-99999.0,'11133222,11111222,99999999' 
TABS,ioos:station:wmo:42047:1,2008-12-02T13:30:00Z,27.8966,-93.5973,2.0,225.6544632,2.475035353,-99999.0,'11133222,11111222,99999999' 
TABS,ioos:station:wmo:42047:1,2008-12-02T14:00:00Z,27.8966,-93.5973,2.0,239.8898319,2.531600284,-99999.0,'11133222,11111222,99999999' 
TABS,ioos:station:wmo:42047:1,2008-12-02T14:30:00Z,27.8966,-93.5973,2.0,287.1741852,4.741402746,-99999.0,'11133222,11111222,99999999' 
TABS,ioos:station:wmo:42047:1,2008-12-02T15:00:00Z,27.8966,-93.5973,2.0,323.6159437,3.304118642,-99999.0,'11133222,11111222,99999999' 
TABS,ioos:station:wmo:42047:1,2008-12-02T15:30:00Z,27.8966,-93.5973,2.0,307.3726751,7.298280619,-99999.0,'11133222,11111222,99999999' 
TABS,ioos:station:wmo:42047:1,2008-12-02T16:00:00Z,27.8966,-93.5973,2.0,302.2939128,5.690140596,-99999.0,'11133222,11111222,99999999' 
TABS,ioos:station:wmo:42047:1,2008-12-02T16:30:00Z,27.8966,-93.5973,2.0,309.4144878,9.371237912,-99999.0,'11133222,11111222,99999999' 
TABS,ioos:station:wmo:42047:1,2008-12-02T17:00:00Z,27.8966,-93.5973,2.0,315.0422905,9.652010153,-99999.0,'11133222,11111222,99999999' 
TABS,ioos:station:wmo:42047:1,2008-12-02T17:30:00Z,27.8966,-93.5973,2.0,325.3358999,10.60185361,-99999.0,'11111222,11111222,99999999' 
TABS,ioos:station:wmo:42047:1,2008-12-02T18:00:00Z,27.8966,-93.5973,2.0,322.8079993,12.44019694,-99999.0,'11111222,11111222,99999999' 
TABS,ioos:station:wmo:42047:1,2008-12-02T18:30:00Z,27.8966,-93.5973,2.0,333.735589,13.64914649,-99999.0,'11111222,11111222,99999999' 
TABS,ioos:station:wmo:42047:1,2008-12-02T19:00:00Z,27.8966,-93.5973,2.0,327.2721647,14.53796753,-99999.0,'11111222,11111222,99999999' 
TABS,ioos:station:wmo:42047:1,2008-12-02T19:30:00Z,27.8966,-93.5973,2.0,335.6532488,14.67512862,-99999.0,'11111222,11111222,99999999' 
TABS,ioos:station:wmo:42047:1,2008-12-02T20:00:00Z,27.8966,-93.5973,2.0,332.6878043,17.82745074,-99999.0,'11111222,11111222,99999999' 
TABS,ioos:station:wmo:42047:1,2008-12-02T20:30:00Z,27.8966,-93.5973,2.0,352.6634538,11.74616959,-99999.0,'11111222,11111222,99999999' 
TABS,ioos:station:wmo:42047:1,2008-12-02T21:00:00Z,27.8966,-93.5973,2.0,14.32960626,12.32339645,-99999.0,'11111222,11111222,99999999' 
TABS,ioos:station:wmo:42047:1,2008-12-02T21:30:00Z,27.8966,-93.5973,2.0,19.01093242,10.06920056,-99999.0,'11111222,11111222,99999999' 
TABS,ioos:station:wmo:42047:1,2008-12-02T22:00:00Z,27.8966,-93.5973,2.0,14.80044199,14.9148416,-99999.0,'11111222,11111222,99999999' 
TABS,ioos:station:wmo:42047:1,2008-12-02T22:30:00Z,27.8966,-93.5973,2.0,20.94986294,13.11711096,-99999.0,'11111222,11111222,99999999' 
TABS,ioos:station:wmo:42047:1,2008-12-02T23:00:00Z,27.8966,-93.5973,2.0,30.74365812,11.60025,-99999.0,'11111222,11111222,99999999' 
TABS,ioos:station:wmo:42047:1,2008-12-02T23:30:00Z,27.8966,-93.5973,2.0,32.01145866,10.22473961,-99999.0,'11111222,11111222,99999999' 
TABS,ioos:station:wmo:42047:1,2008-12-03T00:00:00Z,27.8966,-93.5973,2.0,35.50565873,12.43152444,-99999.0,'11111222,11111222,99999999' 
TABS,ioos:station:wmo:42047:1,2008-12-03T00:30:00Z,27.8966,-93.5973,2.0,34.85542781,9.956153876,-99999.0,'11133222,11111222,99999999' 
TABS,ioos:station:wmo:42047:1,2008-12-03T01:00:00Z,27.8966,-93.5973,2.0,53.97949784,12.41336377,-99999.0,'11111222,11111222,99999999' 
TABS,ioos:station:wmo:42047:1,2008-12-03T01:30:00Z,27.8966,-93.5973,2.0,50.2234943,12.66028831,-99999.0,'11111222,11111222,99999999' 
TABS,ioos:station:wmo:42047:1,2008-12-03T02:00:00Z,27.8966,-93.5973,2.0,48.32049759,13.42928889,-99999.0,'11111222,11111222,99999999' 
TABS,ioos:station:wmo:42047:1,2008-12-03T02:30:00Z,27.8966,-93.5973,2.0,49.32361537,13.22517675,-99999.0,'11111222,11111222,99999999' 
TABS,ioos:station:wmo:42047:1,2008-12-03T03:00:00Z,27.8966,-93.5973,2.0,51.19732131,11.26641025,-99999.0,'11111222,11111222,99999999' 
TABS,ioos:station:wmo:42047:1,2008-12-03T03:30:00Z,27.8966,-93.5973,2.0,49.54079665,13.12975628,-99999.0,'11111222,11111222,99999999' 
TABS,ioos:station:wmo:42047:1,2008-12-03T04:00:00Z,27.8966,-93.5973,2.0,58.12726175,9.620566511,-99999.0,'11133222,11111222,99999999' 
TABS,ioos:station:wmo:42047:1,2008-12-03T04:30:00Z,27.8966,-93.5973,2.0,49.87148487,12.49019616,-99999.0,'11111222,11111222,99999999' 
TABS,ioos:station:wmo:42047:1,2008-12-03T05:00:00Z,27.8966,-93.5973,2.0,51.01525928,13.76537686,-99999.0,'11111222,11111222,99999999' 
TABS,ioos:station:wmo:42047:1,2008-12-03T05:30:00Z,27.8966,-93.5973,2.0,66.94083663,11.33571789,-99999.0,'11111222,11111222,99999999' 
TABS,ioos:station:wmo:42047:1,2008-12-03T06:00:00Z,27.8966,-93.5973,2.0,52.72704275,11.93829552,-99999.0,'11111222,11111222,99999999' 
TABS,ioos:station:wmo:42047:1,2008-12-03T06:30:00Z,27.8966,-93.5973,2.0,41.160939,12.88411425,-99999.0,'11111222,11111222,99999999' 
TABS,ioos:station:wmo:42047:1,2008-12-03T07:00:00Z,27.8966,-93.5973,2.0,39.75176825,13.60520489,-99999.0,'11111222,11111222,99999999' 
TABS,ioos:station:wmo:42047:1,2008-12-03T07:09:00Z,27.8966,-93.5973,2.0,48.8214374376,14.6413797164,-99999.0,'1111122,1111122,1199999999' 
TABS,ioos:station:wmo:42047:1,2008-12-03T07:30:00Z,27.8966,-93.5973,2.0,48.82153373,14.64137972,-99999.0,'11111222,11111222,99999999' 
TABS,ioos:station:wmo:42047:1,2008-12-03T07:39:00Z,27.8966,-93.5973,2.0,85.1333825404,11.5516449045,-99999.0,'1111122,1111122,1199999999' 
TABS,ioos:station:wmo:42047:1,2008-12-03T08:00:00Z,27.8966,-93.5973,2.0,85.13339392,11.5516449,-99999.0,'11111222,11111222,99999999' 
TABS,ioos:station:wmo:42047:1,2008-12-03T08:09:00Z,27.8966,-93.5973,2.0,70.4768430955,10.3235362159,-99999.0,'1111122,1111122,1199999999' 
TABS,ioos:station:wmo:42047:1,2008-12-03T08:30:00Z,27.8966,-93.5973,2.0,70.47688875,10.32353622,-99999.0,'11111222,11111222,99999999' 
TABS,ioos:station:wmo:42047:1,2008-12-03T08:39:00Z,27.8966,-93.5973,2.0,59.2509406126,13.7302731218,-99999.0,'1111122,1111122,1199999999' 
TABS,ioos:station:wmo:42047:1,2008-12-03T09:00:00Z,27.8966,-93.5973,2.0,59.25101252,13.73027312,-99999.0,'11111222,11111222,99999999' 
TABS,ioos:station:wmo:42047:1,2008-12-03T09:09:00Z,27.8966,-93.5973,2.0,57.3687531442,11.2567890626,-99999.0,'1111122,1111122,1199999999' 
TABS,ioos:station:wmo:42047:1,2008-12-03T09:30:00Z,27.8966,-93.5973,2.0,57.36882945,11.25678906,-99999.0,'11111222,11111222,99999999' 
TABS,ioos:station:wmo:42047:1,2008-12-03T09:39:00Z,27.8966,-93.5973,2.0,48.1158482598,7.02488434068,-99999.0,'1111122,1111122,1199999999' 
TABS,ioos:station:wmo:42047:1,2008-12-03T10:00:00Z,27.8966,-93.5973,2.0,48.1159462,7.024884341,-99999.0,'11133222,11111222,99999999' 
TABS,ioos:station:wmo:42047:1,2008-12-03T10:09:00Z,27.8966,-93.5973,2.0,74.9275452249,10.7291052749,-99999.0,'1111122,1111122,1199999999' 
TABS,ioos:station:wmo:42047:1,2008-12-03T10:30:00Z,27.8966,-93.5973,2.0,74.92758047,10.72910527,-99999.0,'11111222,11111222,99999999' 
TABS,ioos:station:wmo:42047:1,2008-12-03T10:39:00Z,27.8966,-93.5973,2.0,66.3186793591,12.000520822,-99999.0,'1111122,1111122,1199999999' 
TABS,ioos:station:wmo:42047:1,2008-12-03T11:00:00Z,27.8966,-93.5973,2.0,66.31873474,12.00052082,-99999.0,'11111222,11111222,99999999' 
TABS,ioos:station:wmo:42047:1,2008-12-03T11:09:00Z,27.8966,-93.5973,2.0,62.1745461532,10.3689199052,-99999.0,'1111122,1111122,1199999999' 
TABS,ioos:station:wmo:42047:1,2008-12-03T11:30:00Z,27.8966,-93.5973,2.0,62.17461122,10.36891991,-99999.0,'11111222,11111222,99999999' 
TABS,ioos:station:wmo:42047:1,2008-12-03T11:39:00Z,27.8966,-93.5973,2.0,57.6421523279,9.30483745156,-99999.0,'1111122,1111122,1199999999' 
TABS,ioos:station:wmo:42047:1,2008-12-03T12:00:00Z,27.8966,-93.5973,2.0,57.64222799,9.304837452,-99999.0,'11133222,11111222,99999999' 
TABS,ioos:station:wmo:42047:1,2008-12-03T12:09:00Z,27.8966,-93.5973,2.0,22.8017877855,8.72158242523,-99999.0,'1111122,1111122,1199999999' 
TABS,ioos:station:wmo:42047:1,2008-12-03T12:30:00Z,27.8966,-93.5973,2.0,22.80194492,8.721582425,-99999.0,'11133222,11111222,99999999' 
TABS,ioos:station:wmo:42047:1,2008-12-03T12:39:00Z,27.8966,-93.5973,2.0,72.2361794278,10.2591325169,-99999.0,'1111122,1111122,1199999999' 
TABS,ioos:station:wmo:42047:1,2008-12-03T13:00:00Z,27.8966,-93.5973,2.0,72.23622097,10.25913252,-99999.0,'11111222,11111222,99999999' 
TABS,ioos:station:wmo:42047:1,2008-12-03T13:09:00Z,27.8966,-93.5973,2.0,51.1914627699,10.2278541249,-99999.0,'1111122,1111122,1199999999' 
TABS,ioos:station:wmo:42047:1,2008-12-03T13:30:00Z,27.8966,-93.5973,2.0,51.19155352,10.22785412,-99999.0,'11111222,11111222,99999999' 
TABS,ioos:station:wmo:42047:1,2008-12-03T13:39:00Z,27.8966,-93.5973,2.0,44.5771605953,7.66524624523,-99999.0,'1111122,1111122,1199999999' 
TABS,ioos:station:wmo:42047:1,2008-12-03T14:00:00Z,27.8966,-93.5973,2.0,44.57726681,7.665246245,-99999.0,'11133222,11111222,99999999' 
TABS,ioos:station:wmo:42047:1,2008-12-03T14:09:00Z,27.8966,-93.5973,2.0,72.1469827586,10.2747700704,-99999.0,'1111122,1111122,1199999999' 
TABS,ioos:station:wmo:42047:1,2008-12-03T14:30:00Z,27.8966,-93.5973,2.0,72.14702451,10.27477007,-99999.0,'11111222,11111222,99999999' 
TABS,ioos:station:wmo:42047:1,2008-12-03T14:39:00Z,27.8966,-93.5973,2.0,52.7806237905,5.90210979227,-99999.0,'1111122,1111122,1199999999' 
TABS,ioos:station:wmo:42047:1,2008-12-03T15:00:00Z,27.8966,-93.5973,2.0,52.78071083,5.902109792,-99999.0,'11133222,11111222,99999999' 
TABS,ioos:station:wmo:42047:1,2008-12-03T15:09:00Z,27.8966,-93.5973,2.0,21.2040212124,7.65849201867,-99999.0,'1111122,1111122,1199999999' 
TABS,ioos:station:wmo:42047:1,2008-12-03T15:30:00Z,27.8966,-93.5973,2.0,21.20418209,7.658492019,-99999.0,'11133222,11111222,99999999' 
TABS,ioos:station:wmo:42047:1,2008-12-03T15:39:00Z,27.8966,-93.5973,2.0,47.9901153484,13.1488744765,-99999.0,'1111122,1111122,1199999999' 
TABS,ioos:station:wmo:42047:1,2008-12-03T16:00:00Z,27.8966,-93.5973,2.0,47.99021359,13.14887448,-99999.0,'11111222,11111222,99999999' 
TABS,ioos:station:wmo:42047:1,2008-12-03T16:09:00Z,27.8966,-93.5973,2.0,49.1644176583,7.69241834536,-99999.0,'1111122,1111122,1199999999' 
TABS,ioos:station:wmo:42047:1,2008-12-03T16:30:00Z,27.8966,-93.5973,2.0,49.16451315,7.692418345,-99999.0,'11133222,11111222,99999999' 
TABS,ioos:station:wmo:42047:1,2008-12-03T16:39:00Z,27.8966,-93.5973,2.0,62.8188889145,9.15051911096,-99999.0,'1111122,1111122,1199999999' 
TABS,ioos:station:wmo:42047:1,2008-12-03T17:00:00Z,27.8966,-93.5973,2.0,62.81895248,9.150519111,-99999.0,'11133222,11111222,99999999' 
TABS,ioos:station:wmo:42047:1,2008-12-03T17:09:00Z,27.8966,-93.5973,2.0,9.01561840194,9.69983505014,-99999.0,'1111122,1111122,1199999999' 
TABS,ioos:station:wmo:42047:1,2008-12-03T17:30:00Z,27.8966,-93.5973,2.0,9.015807778,9.69983505,-99999.0,'11133222,11111222,99999999' 
TABS,ioos:station:wmo:42047:1,2008-12-03T17:39:00Z,27.8966,-93.5973,2.0,23.5789032337,9.09973625991,-99999.0,'1111122,1111122,1199999999' 
TABS,ioos:station:wmo:42047:1,2008-12-03T18:00:00Z,27.8966,-93.5973,2.0,23.57905855,9.09973626,-99999.0,'11133222,11111222,99999999' 
TABS,ioos:station:wmo:42047:1,2008-12-03T18:09:00Z,27.8966,-93.5973,2.0,18.6989828042,8.92088000143,-99999.0,'1111122,1111122,1199999999' 
TABS,ioos:station:wmo:42047:1,2008-12-03T18:30:00Z,27.8966,-93.5973,2.0,18.69914954,8.920880001,-99999.0,'11133222,11111222,99999999' 
TABS,ioos:station:wmo:42047:1,2008-12-03T18:39:00Z,27.8966,-93.5973,2.0,32.0836617105,14.741404275,-99999.0,'1111122,1111122,1199999999' 
TABS,ioos:station:wmo:42047:1,2008-12-03T19:00:00Z,27.8966,-93.5973,2.0,32.08379714,14.74140428,-99999.0,'11111222,11111222,99999999' 
TABS,ioos:station:wmo:42047:1,2008-12-03T19:09:00Z,27.8966,-93.5973,2.0,90.0,1.0,-99999.0,'1113322,1111122,1199999999' 
TABS,ioos:station:wmo:42047:1,2008-12-03T19:30:00Z,27.8966,-93.5973,2.0,14.31363997,14.03570091,-99999.0,'11111222,11111222,99999999' 
TABS,ioos:station:wmo:42047:1,2008-12-03T20:00:00Z,27.8966,-93.5973,2.0,16.27724098,14.94920065,-99999.0,'11111222,11111222,99999999' 
TABS,ioos:station:wmo:42047:1,2008-12-03T20:30:00Z,27.8966,-93.5973,2.0,30.13768585,16.65081379,-99999.0,'11111222,11111222,99999999' 
TABS,ioos:station:wmo:42047:1,2008-12-03T21:00:00Z,27.8966,-93.5973,2.0,24.05571012,15.62721344,-99999.0,'11111222,11111222,99999999' 
TABS,ioos:station:wmo:42047:1,2008-12-03T21:30:00Z,27.8966,-93.5973,2.0,22.62804636,16.4784617,-99999.0,'11111222,11111222,99999999' 
TABS,ioos:station:wmo:42047:1,2008-12-03T22:00:00Z,27.8966,-93.5973,2.0,40.81390284,15.20801433,-99999.0,'11111222,11111222,99999999' 